Historyczne dane pomiarowe

Dodano dane terminowe – wersja testowa.

Dane z okresu 1951-2019

Wersja bazy: 1.34 [2019-03-16, lista zmian], aktualizacja planowana na 2019-04-15

Dane meteo z obszaru Polski uzyskane na podstawie danych udostępnionych przez Instytut Meteorologii i Gospodarki Wodnej – Państwowy Instytut Badawczy.

 

Wybierz Datę:    

       

TemperaturaWilgotnośćWiatrCiśnienieOpadyŚniegCzas trwania zjawisk
 Stacja t tx tn tng RH VA  wxwx mslp ppp RRR   cm mm wxwxwxwxwxwxwx
2019-07-03 17.1 22.4 10.6 7.8-- 2.3 1.0---- 0.0------------
2019-07-02 21.5 26.2 17.9 15.5-- 6.0 0.3---- 0.0------------
2019-07-01 25.9 29.7 22.7 20.1-- 2.7 3.3---- 0.0------------
2019-06-30 20.7 28.8 10.8 8.2-- 0.0 2.0---- 0.0------------
2019-06-29 16.8 22.3 9.7 6.3-- 3.3 1.3---- 0.0------------
2019-06-28 16.7 21.6 13.1 10.0-- 4.7 1.7---- 0.0------------
2019-06-27 23.5 27.2 19.4 16.5-- 3.7 3.0---- 0.0------------
2019-06-26 23.8 31.3 15.4 11.8-- 1.7 1.3---- 0.0------------
2019-06-25 21.5 28.3 15.2 12.4-- 3.0 2.3---- 0.0------------
2019-06-24 18.6 20.2 17.2 15.4-- 8.0 3.3---- 0.0------------
2019-06-23 19.9 23.6 17.0 15.1-- 6.3 2.3---- 0.2------------
2019-06-22 18.9 24.6 15.4 13.5-- 7.3 2.3---- 4.8------------
2019-06-21 20.5 25.6 16.1 13.7-- 6.3 0.3---- 9.1------------
2019-06-20 21.9 28.0 16.1 14.5-- 3.7 0.0---- 0.0------------
2019-06-19 20.1 24.5 15.0 12.6-- 6.3 0.0---- 33.5------------
2019-06-18 19.0 22.7 15.0 14.7-- 6.7 2.7---- 0.0------------
2019-06-17 18.0 21.0 15.7 14.3-- 8.0 2.0---- 2.1------------
2019-06-16 22.1 29.3 16.0 13.2-- 5.7 0.7---- 9.5------------
2019-06-15 23.0 31.8 14.5 12.1-- 1.7 0.3---- 0.0------------
2019-06-14 22.1 31.3 15.9 12.7-- 4.7 0.7---- 2.5------------
2019-06-13 22.5 31.0 13.4 10.6-- 1.0 0.3---- 0.0------------
2019-06-12 20.9 29.1 15.0 12.1-- 4.7 1.0---- 1.1------------
2019-06-11 21.1 29.8 15.3 11.9-- 3.3 1.7---- 1.7------------
2019-06-10 21.3 28.3 14.4 10.7-- 1.7 2.0---- 0.0------------
2019-06-09 18.9 24.2 15.3 15.0-- 6.3 1.0---- 0.0------------
2019-06-08 21.2 27.8 13.3 9.9-- 4.3 0.7---- 5.6------------
2019-06-07 18.8 23.5 12.0 8.9-- 5.7 1.7---- 2.4------------
2019-06-06 17.2 23.3 11.2 8.2-- 5.3 0.3---- 15.4------------
2019-06-05 17.7 23.6 12.5 9.8-- 5.0 2.0---- 0.0------------
2019-06-04 18.0 24.6 11.8 10.2-- 4.7 1.3---- 0.0------------
2019-06-03 17.3 24.7 10.2 6.1-- 3.7 2.3---- 3.1------------
2019-06-02 17.2 23.8 10.4 7.3-- 4.0 0.7---- 0.0------------
2019-06-01 15.2 21.9 8.9 6.3-- 5.0 2.0---- 0.0------------
2019-05-31 12.4 16.2 8.9 8.8-- 8.0 0.3---- 0.5------------
2019-05-30 10.4 11.3 9.9 9.6-- 8.0 0.7---- 14.5------------
2019-05-29 14.4 19.0 11.1 9.8-- 8.0 1.7---- 6.9------------
2019-05-28 19.3 22.0 16.7 15.1-- 6.0 1.7---- 0.0------------
2019-05-27 17.7 23.6 11.1 8.3-- 6.7 2.3---- 0.0------------
2019-05-26 14.2 22.0 7.1 4.0-- 6.3 1.0---- 0.3------------
2019-05-25 14.6 19.8 11.1 10.8-- 6.3 0.3---- 0.7------------
2019-05-24 12.0 14.8 10.1 9.8-- 8.0 0.7---- 3.5------------
2019-05-23 13.0 17.0 10.4 8.6-- 8.0 0.3---- 7.3------------
2019-05-22 13.6 15.6 12.0 10.4-- 7.7 2.3---- 1.0------------
2019-05-21 13.3 16.5 10.4 7.4-- 8.0 2.0---- 14.3------------
2019-05-20 17.1 21.0 11.4 8.8-- 7.3 0.7---- 3.1------------
2019-05-19 17.2 23.7 10.3 8.1-- 4.3 1.3---- 0.3------------
2019-05-18 16.1 24.2 11.0 7.8-- 6.0 0.3---- 0.1------------
2019-05-17 15.0 20.2 10.6 10.2-- 7.3 0.0---- 0.5------------
2019-05-16 12.3 14.9 10.1 9.6-- 8.0 1.0---- 0.1------------
2019-05-15 9.5 12.7 6.1 5.6-- 8.0 0.3---- 2.0------------
2019-05-14 5.3 6.6 3.8 3.6-- 8.0 0.7---- 12.0------------
2019-05-13 8.5 15.9 5.4 4.9-- 8.0 1.0---- 9.4------------
2019-05-12 13.6 20.2 6.8 4.5-- 3.7 1.7---- 0.8------------
2019-05-11 12.7 18.5 8.2 7.3-- 5.3 1.0---- 0.0------------
2019-05-10 10.8 15.8 6.9 6.3-- 6.3 0.7---- 0.0------------
2019-05-09 8.3 14.2 1.4 -2.2-- 6.3 0.7---- 3.0------------
2019-05-08 7.9 12.8 1.9 -0.3-- 5.0 0.7---- 0.0------------
2019-05-07 6.9 11.6 2.6 1.9-- 7.3 1.7---- 0.0------------
2019-05-06 3.7 5.8 2.2 2.0-- 8.0 1.0---- 14.2------------
2019-05-05 6.9 9.4 4.9 4.6-- 8.0 1.0---- 25.2------------
114.7 ms

 

Źródłem pochodzenia danych jest Instytut Meteorologii i Gospodarki Wodnej – Państwowy Instytut Badawczy. Dane Instytutu Meteorologii i Gospodarki Wodnej – Państwowego Instytutu Badawczego zostały przetworzone.

Dane źródłowe można odnaleźć na stronie https://dane.imgw.pl